TV
NORAD ID: 26666
Int'l Code: 2001-002A
Perigee: 35,771.4 km
Apogee: 35,815.2 km
Inclination: 0.0 °
Period: 1,436.1 minutes
Semi major axis: 42164 km
Launch date: January 10, 2001
Source: Turkey (TURK)
Comments: 32 Ku-band transponders; direct-to-home voice, video, and data transmissions to countries between central Europe and the Indian subcontinent.
Two Line Element Set (TLE):
1 26666U 01002A 13138.76308000 .00000147 00000-0 10000-3 0 2437
2 26666 000.0251 328.9578 0005194 070.3632 154.0048 01.00273275 45253
Source: AFSPC
NASA's NSSDC Master Catalog entry for TURKSAT 2A